Regional Weather Roundup
Issued by NWS

Home | Current Version | Previous Version | Graphics & Text | Print | Product List | Glossary On
Versions: 1 2 3 4 5 6 7 8 9 10 11 12 13 14 15 16 17 18 19 20 21 22 23 24 25 26 27 28 29 30 31 32 33 34 35 36 37 38 39 40 41 42 43 44 45 46 47 48 49 50
000
ASUS43 KMKX 281411
RWRWI

WISCONSIN REGIONAL WEATHER ROUNDUP
NATIONAL WEATHER SERVICE MILWAUKEE/SULLIVAN WI
900 AM CDT THU AUG 28 2014

NOTE: "FAIR" INDICATES FEW OR NO CLOUDS BELOW 12,000 FEET WITH NO
SIGNIFICANT WEATHER AND/OR OBSTRUCTIONS TO VISIBILITY.

WIZ001-002-006>008-014>016-023>028-281500-
NORTHWEST WISCONSIN

CITY           SKY/WX    TMP DP  RH WIND       PRES   REMARKS
SUPERIOR ARPT  MOSUNNY   58  58  99 CALM      30.12S
ASHLAND        SUNNY     59  51  75 CALM      30.14S
HAYWARD        SUNNY     60  49  66 SE3       30.14S
SIREN          CLOUDY    62  52  70 SE6       30.11S
RICE LAKE      SUNNY     60  50  69 E5        30.14F
LADYSMITH      SUNNY     61  51  70 E6        30.16S
EAU CLAIRE     MOSUNNY   62  51  67 E6        30.12S
MENOMONIE      MOSUNNY   61  53  72 E7        30.12S
NEW RICHMOND   PTSUNNY   62  54  75 SE3       30.11S
OSCEOLA        PTSUNNY   62  55  76 SE7       30.13S
$$

WIZ003>005-009-010-017-018-281500-
NORTH CENTRAL WISCONSIN

CITY           SKY/WX    TMP DP  RH WIND       PRES   REMARKS
WOODRUFF       SUNNY     62  52  70 S7        30.15F
RHINELANDER    SUNNY     56  51  84 VRB3      30.17F
EAGLE RIVER    SUNNY     57  52  82 SE3       30.16S
LAND O LAKES   SUNNY     59  52  78 S3        30.18R
PHILLIPS       MOSUNNY   60  50  68 SE3       30.15S
TOMAHAWK       SUNNY     58  54  88 CALM      30.16F
MEDFORD        SUNNY     60  52  74 E3        30.15S
MERRILL        SUNNY     58  54  85 SE8       30.16S
$$

WIZ029-030-035-036-043>047-281500-
CENTRAL WISCONSIN

CITY           SKY/WX    TMP DP  RH WIND       PRES   REMARKS
WAUSAU         FOG       54  53  97 E5        30.16S VSB 1
MOSINEE        FOG       55  55 100 E5        30.17S VSB 1/4
MARSHFIELD     CLOUDY    58  55  90 E6        30.14S FOG
STEVENS POINT  CLOUDY    56  56 100 SE5       30.16S FOG
WAUPACA        CLOUDY    65  61  87 S5        30.16S
WAUTOMA        RAIN      64  61  90 CALM      30.15F
WISC RAPIDS    CLOUDY    59  58  96 SE5       30.15F FOG
CAMP DOUGLAS   MOSUNNY   61  61 100 VRB1      30.13S
$$

WIZ011>013-019>022-031-037>040-048>050-281500-
NORTHEAST WISCONSIN

CITY           SKY/WX    TMP DP  RH WIND       PRES   REMARKS
ANTIGO         CLOUDY    56  56 100 E8        30.18S FOG
STURGEON BAY   CLOUDY    63  54  72 SE6       30.18S
GREEN BAY      CLOUDY    64  59  83 S7        30.16S
MANITOWOC      CLOUDY    64  56  75 SE10      30.17S
APPLETON       PTSUNNY   64  57  77 SE7       30.16S
CLINTONVILLE   CLOUDY    61  59  94 CALM      30.16S
OSHKOSH        PTSUNNY   65  58  78 S8        30.15R
$$

WIZ032>034-041-042-053>061-281500-
SOUTHWEST WISCONSIN

CITY           SKY/WX    TMP DP  RH WIND       PRES   REMARKS
LA CROSSE      MOSUNNY   66  60  81 E5        30.11S
SPARTA         MOSUNNY   64  60  86 CALM      30.13S
VIROQUA        FAIR      64  63  96 SE8       30.14S
BOSCOBEL       SUNNY     68  61  78 NE3       30.12S
PRAIRIE DU CHI PTSUNNY   67  61  79 E6        30.11S
PLATTEVILLE    FAIR      67  63  85 SE10      30.13F
$$

WIZ056-057-062-063-064-067-068-281500-
SOUTH CENTRAL WISCONSIN

CITY           SKY/WX    TMP DP  RH WIND       PRES   REMARKS
BARABOO/DELLS  SUNNY     66  58  73 SE6       30.14R
LONE ROCK      SUNNY     69  62  78 E7        30.13S
WATERTOWN      SUNNY     65  61  85 SE6       30.14S
MADISON        MOSUNNY   67  58  72 S12       30.14S
MIDDLETON      FAIR      69  58  68 SE9       30.14S
MONROE         SUNNY     66  61  82 E7        30.13F
JANESVILLE     SUNNY     70  57  64 SE12      30.13F
$$

WIZ051-052-058>065-066-070>072-281500-
SOUTHEAST WISCONSIN

CITY           SKY/WX    TMP DP  RH WIND       PRES   REMARKS
MILWAUKEE      MOSUNNY   67  55  65 SE14      30.15F
WAUKESHA       SUNNY     64  55  72 E12       30.16F
MILWAUKEE/TIMM SUNNY     66  52  59 SE10      30.17S
RACINE         SUNNY     68  55  63 SE10      30.17S
BURLINGTON     SUNNY     65  58  78 E9        30.15S
KENOSHA        SUNNY     68  56  65 E13       30.16S
FOND DU LAC    SUNNY     66  57  72 S10       30.15S
SHEBOYGAN      SUNNY     65  58  78 SE8       30.16S
WEST BEND      SUNNY     64  55  72 SE7       30.16S
JUNEAU         SUNNY     65  58  78 SE12      30.16S
$$

LSZ147-162-281500-
LAKE SUPERIOR

STATION/POSITION TIME  TEMP    WIND        PRES    WAVE
                       AIR SEA DIR/SP/G            HT/PER
                 (UTC) (F)     (DEG/KT/KT) (MB)    (FT/S)
W MID LAKE BUOY  1350   57 56  160/  6/  6 1020.3F   0
DEVILS ISLAND    1400   61     230/  6/  7 1020.4R
PORT WING        1300   59      CALM  /  2 1020.3S
SAXON HARBOR     1300   58     200/  4/  6 1020.3S
$$

LMZ867-665-643>646-281500-
LAKE MICHIGAN

STATION/POSITION TIME  TEMP    WIND        PRES    WAVE
                       AIR SEA DIR/SP/G            HT/PER
                 (UTC) (F)     (DEG/KT/KT) (MB)    (FT/S)
N MID LAKE BUOY  1350   62 65  100/  6/  8 1022.1F   0
NORTHPORT PIER   1300   63     150/  5/  8 1021.7S
SISTER BAY       1311   65        CALM       N/A
KEWAUNEE LAKESHO 1300   63     150/  9/ 12 1020.6R
SHEBOYGAN LAKESH 1400   65 68  140/ 12/ 13 1021.6R
ATWATER BUOY     1400   67     130/ 14/ 16 1022.1F
MILWAUKEE LAKESH 1300   67     130/ 12/ 14   N/A
S MID LAKE BUOY  1350   65 69  110/ 12/ 14 1021.1S   2/ 4
KENOSHA   LAKESH 1400   68     120/ 13/ 16 1020.7S
$$

TC  - TEMPERATURE IN CELSIUS
VSB - VISIBILITY IN STATUTE MILES
WCI - WIND CHILL INDEX
HX  - HEAT INDEX




USA.gov is the U.S. government's official web portal to all federal, state and local government web resources and services.